Location: ?
(35.3436°N, 139.3168°E)
Time: 20:24:34
(UTC+00:00)

ISS - Visible Passes

Search period start: 22 January 2021 00:00
Search period end: 01 February 2021 00:00
Orbit: 418 x 421 km, 51.6° (Epoch: 23 January)

Date Brightness Start Highest point End Pass type
(mag) Time Alt. Az. Time Alt. Az. Time Alt. Az.
22 Jan -2.5 08:21:49 10° WSW 08:24:57 35° NW 08:28:06 10° NNE visible
23 Jan -1.0 09:13:55 10° NW 09:14:57 11° NNW 09:15:59 10° N visible
24 Jan -1.3 08:25:16 10° WNW 08:27:21 15° NNW 08:29:28 10° N visible
